TimeWEST,TemperatureF,Dew PointF,Humidity,Sea Level PressureIn,VisibilityMPH,Wind Direction,Wind SpeedMPH,Gust SpeedMPH,PrecipitationIn,Events,Conditions,WindDirDegrees,DateUTC
12:00 AM,60.8,46.4,59,30.09,-9999.0,NE,13.8,-,N/A,,Clear,40,2013-05-21 23:00:00
12:30 AM,60.8,46.4,59,30.09,-9999.0,NE,11.5,-,N/A,,Clear,40,2013-05-21 23:30:00
1:00 AM,59,47,56,30.09,6,NE,9.2,,,,,50,2013-05-22 00:00:00
1:00 AM,59.0,46.4,63,30.09,-9999.0,NE,9.2,-,N/A,,Clear,50,2013-05-22 00:00:00
1:30 AM,59.0,48.2,67,30.09,6.2,NE,9.2,-,N/A,,Unknown,50,2013-05-22 00:30:00
2:00 AM,59.0,48.2,67,30.09,6.2,NE,9.2,-,N/A,,Unknown,50,2013-05-22 01:00:00
2:30 AM,57.2,48.2,72,30.09,6.2,NE,5.8,-,N/A,,Unknown,50,2013-05-22 01:30:00
3:00 AM,57.2,48.2,72,30.06,6.2,NE,1.2,-,N/A,,Unknown,40,2013-05-22 02:00:00
3:30 AM,57.2,48.2,72,30.06,6.2,Calm,Calm,-,N/A,,Unknown,0,2013-05-22 02:30:00
4:00 AM,55,47,67,30.08,6,Calm,Calm,,,,,,2013-05-22 03:00:00
4:00 AM,55.4,46.4,72,30.06,6.2,Calm,Calm,-,N/A,,Unknown,0,2013-05-22 03:00:00
4:30 AM,55.4,46.4,72,30.06,6.2,Calm,Calm,-,N/A,,Unknown,0,2013-05-22 03:30:00
5:00 AM,53.6,46.4,77,30.06,6.2,Calm,Calm,-,N/A,,Unknown,0,2013-05-22 04:00:00
5:30 AM,53.6,46.4,77,30.06,6.2,Calm,Calm,-,N/A,,Unknown,0,2013-05-22 04:30:00
6:00 AM,53.6,46.4,77,30.06,-9999.0,Calm,Calm,-,N/A,,Clear,0,2013-05-22 05:00:00
6:30 AM,53.6,46.4,77,30.06,-9999.0,Calm,Calm,-,N/A,,Clear,0,2013-05-22 05:30:00
7:00 AM,53,46,69,30.09,6,Calm,Calm,,,,,,2013-05-22 06:00:00
7:00 AM,53.6,46.4,77,30.06,-9999.0,Calm,Calm,-,N/A,,Clear,0,2013-05-22 06:00:00
7:30 AM,55.4,46.4,72,30.09,-9999.0,Calm,Calm,-,N/A,,Clear,0,2013-05-22 06:30:00
8:00 AM,57.2,46.4,67,30.09,-9999.0,Calm,Calm,-,N/A,,Clear,0,2013-05-22 07:00:00
8:30 AM,59.0,46.4,63,30.09,-9999.0,Calm,Calm,-,N/A,,Clear,0,2013-05-22 07:30:00
9:00 AM,59.0,46.4,63,30.09,-9999.0,Calm,Calm,-,N/A,,Clear,0,2013-05-22 08:00:00
9:30 AM,60.8,46.4,59,30.12,-9999.0,Calm,Calm,-,N/A,,Clear,0,2013-05-22 08:30:00
10:00 AM,63,46,43,30.09,6,NNE,1.2,,,,,20,2013-05-22 09:00:00
10:00 AM,62.6,46.4,55,30.12,-9999.0,Calm,Calm,-,N/A,,Clear,0,2013-05-22 09:00:00
10:30 AM,64.4,46.4,52,30.12,-9999.0,NNE,4.6,-,N/A,,Clear,20,2013-05-22 09:30:00
11:00 AM,66.2,44.6,46,30.12,-9999.0,NE,5.8,-,N/A,,Clear,40,2013-05-22 10:00:00
11:30 AM,68.0,44.6,43,30.12,-9999.0,NE,6.9,-,N/A,,Clear,50,2013-05-22 10:30:00
12:00 PM,69.8,41.0,35,30.12,-9999.0,NNE,6.9,-,N/A,,Clear,30,2013-05-22 11:00:00
12:30 PM,69.8,41.0,35,30.09,-9999.0,North,6.9,-,N/A,,Clear,10,2013-05-22 11:30:00
1:00 PM,72,40,20,30.04,6,North,4.6,,,,,10,2013-05-22 12:00:00
1:00 PM,71.6,39.2,31,30.09,-9999.0,NNE,3.5,-,N/A,,Clear,20,2013-05-22 12:00:00
1:30 PM,73.4,41.0,31,30.09,-9999.0,NNE,4.6,-,N/A,,Clear,20,2013-05-22 12:30:00
2:00 PM,75.2,41.0,29,30.09,6.2,North,4.6,-,N/A,,Partly Cloudy,360,2013-05-22 13:00:00
2:30 PM,75.2,41.0,29,30.06,6.2,NE,8.1,-,N/A,,Partly Cloudy,40,2013-05-22 13:30:00
3:00 PM,75.2,39.2,27,30.06,6.2,Variable,4.6,-,N/A,,Partly Cloudy,0,2013-05-22 14:00:00
3:30 PM,77.0,35.6,22,30.06,6.2,NNE,4.6,-,N/A,,Partly Cloudy,20,2013-05-22 14:30:00
4:00 PM,77,35,13,29.99,6,East,5.8,,,,Scattered Clouds,80,2013-05-22 15:00:00
4:00 PM,77.0,37.4,24,30.06,6.2,Variable,4.6,-,N/A,,Partly Cloudy,0,2013-05-22 15:00:00
4:30 PM,77.0,35.6,22,30.04,6.2,Variable,5.8,-,N/A,,Partly Cloudy,0,2013-05-22 15:30:00
5:00 PM,77.0,32.0,19,30.04,6.2,ENE,3.5,-,N/A,,Partly Cloudy,60,2013-05-22 16:00:00
5:30 PM,78.8,32.0,18,30.04,6.2,Variable,3.5,-,N/A,,Partly Cloudy,0,2013-05-22 16:30:00
6:00 PM,78.8,32.0,18,30.04,6.2,Calm,Calm,-,N/A,,Partly Cloudy,0,2013-05-22 17:00:00
6:30 PM,78.8,30.2,17,30.04,6.2,North,8.1,-,N/A,,Partly Cloudy,350,2013-05-22 17:30:00
7:00 PM,78,30,9,29.96,6,NE,6.9,,,,Scattered Clouds,50,2013-05-22 18:00:00
7:00 PM,78.8,30.2,17,30.04,6.2,NE,6.9,-,N/A,,Partly Cloudy,40,2013-05-22 18:00:00
7:30 PM,77.0,28.4,17,30.04,6.2,Calm,Calm,-,N/A,,Partly Cloudy,0,2013-05-22 18:30:00
8:00 PM,77.0,28.4,17,30.04,6.2,Calm,Calm,-,N/A,,Partly Cloudy,0,2013-05-22 19:00:00
8:30 PM,75.2,28.4,18,30.04,6.2,Calm,Calm,-,N/A,,Partly Cloudy,0,2013-05-22 19:30:00
9:00 PM,75.2,28.4,18,30.04,6.2,Calm,Calm,-,N/A,,Partly Cloudy,0,2013-05-22 20:00:00
9:30 PM,71.6,48.2,43,30.06,6.2,North,12.7,-,N/A,,Partly Cloudy,10,2013-05-22 20:30:00
10:00 PM,69,47,35,30.04,6,NNE,13.8,,,,Scattered Clouds,20,2013-05-22 21:00:00
10:00 PM,69.8,48.2,46,30.09,6.2,NNE,12.7,-,N/A,,Partly Cloudy,20,2013-05-22 21:00:00
10:30 PM,68.0,48.2,49,30.09,6.2,North,11.5,-,N/A,,Unknown,10,2013-05-22 21:30:00
11:00 PM,66.2,50.0,56,30.12,6.2,NNE,11.5,-,N/A,,Partly Cloudy,30,2013-05-22 22:00:00
11:30 PM,66.2,50.0,56,30.12,6.2,NE,9.2,-,N/A,,Partly Cloudy,40,2013-05-22 22:30:00